User: anonymous   Login
Location: Unspecified
(0.0000°N, 0.0000°E)
Time: 11:02:10
(UTC+02:00)
Language:

Transit 2A - Orbit

View from above orbital plane
View from above orbital plane
View from above satellite
View from above satellite

Ground track
Ground track

The orbit data is extracted from the following two-line orbital elements,

1 00045U 60007A   16120.25009238  .00000066  00000-0  43307-4 0  9994
2 00045  66.6961  40.1725 0259626 333.3171  25.4757 14.33481533906230
Epoch (UTC): 29 April 2016 06:00:07
Eccentricity: 0.0259626
inclination: 66.6961°
perigee height: 594 km
apogee height: 966 km
right ascension of ascending node: 40.1725°
argument of perigee: 333.3171°
revolutions per day: 14.33481533
mean anomaly at epoch: 25.4757°
orbit number at epoch: 90623

The dashed part of the orbit path shows where the satellite is in the earth's shadow,  

DLR